カタログに戻る

STARLINK-37886

運用中通信VLEO
NORAD 69943·PAYLOAD·🇺🇸 United States

打ち上げ Jul 9, 2026 から Cape Canaveral Space Force Station

Loading…

次のパス (今後24時間)

TLE

最新Source: CelesTrak SupGP

元期: Sep 14, 2026, 22:35 UTC

1 69943C 26157A   26257.94145833 -.00008912  00000+0 -26329-3 0  2574
2 69943  53.1594 359.3788 0001326  74.2150 300.0384 15.34395324    12

AllMySatでSTARLINK-37886をリアルタイム追跡

Download on the App Store